[[{"header":{"parameterUnit":"m.s-1","parameterCategory":2,"la1":30.2991,"la2":30.254,"lo1":-89.0895,"lo2":-89.0444,"dy":0.0017,"dx":0.0017,"nx":28,"ny":28,"refTime":"2024-07-07T09:00:00:Z","depth":"0","parameterNumber":2,"parameterNumberName":"U-component_of_CURRENTS"},"data":[0,0,0,0,0,0,0,0,0,0,0,0,0,0,0,0,0,0,0,0,0,0,0,0,0,0,0,0,0,0,0,0,0,0,0,0,0,0,0,0,0,0,0,0,0,0,0,0,0,0,0,0,0,0,0,0,0,0,0.2772,0.2771,0,0.2753,0.2753,0.2753,0.2734,0.2734,0.2733,0.2733,0.2792,0.2794,0.2796,0,0,0,0,0,0,0,0,0,0,0,0,0,0.2902,0.2899,0.2772,0.2771,0.2771,0.2753,0.2753,0.2753,0.2734,0.2734,0.2733,0.2732,0.2791,0.2794,0.2796,0,0,0,0,0,0,0,0,0,0,0,0,0,0.2863,0.2898,0.2772,0.2757,0.2755,0.2753,0.2753,0.2753,0.2735,0.2734,0.2733,0.2732,0.279,0.2793,0.2797,0.2832,0,0,0.2806,0.2808,0,0,0,0,0,0,0,0,0.2866,0.2859,0.2759,0.2758,0.2756,0.2742,0.2821,0.2783,0.2735,0.2746,0.2733,0.2732,0.2781,0.2785,0.2787,0.2835,0.2838,0.2806,0.2808,0.281,0.2811,0,0,0,0,0,0,0,0.2868,0.286,0.2768,0.2759,0.2757,0.2789,0.2782,0.2814,0.2772,0.2745,0.2742,0.2736,0.2781,0.2784,0.2788,0.2839,0.2806,0.2809,0.2811,0.2812,0.2968,0.297,0,0,0,0,0,0,0.2858,0.2862,0.2768,0.2767,0.2806,0.2787,0.2779,0.275,0.277,0.2771,0.2736,0.2735,0.2779,0.2785,0.279,0.2916,0.281,0.2813,0.2814,0.2966,0.2968,0.2971,0,0,0,0,0,0,0.2861,0.2849,0.2769,0.2813,0.2805,0.2784,0.2753,0.275,0.275,0.2762,0.2765,0.2738,0.2778,0.2786,0.2834,0.2915,0.2814,0.2817,0.2963,0.2966,0.2969,0.3114,0,0,0,0,0,0,0.2864,0.285,0.2842,0.2811,0.2802,0.2786,0.2753,0.275,0.2746,0.2744,0.2766,0.277,0.2778,0.283,0.2837,0.2917,0.2819,0.296,0.2964,0.2968,0.3107,0.3122,0.3136,0,0,0,0,0,0.2869,0.2858,0.2841,0.2831,0.2785,0.2787,0.2787,0.2772,0.2747,0.2766,0.2777,0.2769,0.2862,0.2834,0.2842,0.2925,0.2958,0.2963,0.2968,0.31,0.3119,0.3135,0,0,0,0,0,0,0.2908,0.2854,0.2835,0.2807,0.2805,0.2783,0.2796,0.2775,0.2795,0.2797,0.2795,0.2803,0.2883,0.287,0.2839,0.2978,0.2911,0.2917,0.3008,0.3026,0.304,0.3107,0.2822,0,0,0,0,0,0.2912,0.2892,0.2856,0.2841,0.2839,0.2817,0.2817,0.2808,0.2811,0.2817,0.2833,0.2859,0.2912,0.2937,0.2975,0.3044,0.3072,0.31,0.3115,0.3127,0.3186,0.3315,0.3349,0.2987,0.2987,0.2987,0,0,0.292,0.2892,0.2878,0.2851,0.2845,0.2874,0.2817,0.2825,0.2877,0.2825,0.2906,0.2914,0.2939,0.3031,0.3065,0.3029,0.3229,0.3134,0.3145,0.3198,0.3324,0.336,0.3392,0.2991,0.299,0.299,0,0,0.294,0.2906,0.2902,0.2915,0.2911,0.2917,0.292,0.2912,0.294,0.2998,0.2994,0.306,0.3098,0.3169,0.3199,0.3315,0.3304,0.3297,0.3432,0.3556,0.3589,0.3618,0.3638,0.3668,0.3302,0.3303,0.3303,0,0.2954,0.2943,0.2911,0.2933,0.2962,0.2941,0.2981,0.3019,0.3039,0.3092,0.3045,0.3172,0.3192,0.3344,0.3388,0.3362,0.3379,0.3365,0.3581,0.3611,0.3639,0.3652,0.3684,0.331,0.3309,0.3309,0.3308,0,0.2976,0.299,0.3001,0.3026,0.3062,0.3094,0.3138,0.3196,0.3213,0.3251,0.3381,0.3408,0.3488,0.3502,0.3488,0.3689,0.3616,0.3588,0.3547,0.3685,0.3688,0.3718,0.3321,0.3318,0.3316,0.3314,0,0,0.2941,0.3001,0.3007,0.3065,0.3118,0.3159,0.3272,0.3376,0.3474,0.3517,0.3647,0.3755,0.3753,0.3791,0.3781,0.3895,0.4081,0.383,0.3833,0.3867,0.4287,0.4022,0.4027,0.4087,0.4095,0.4101,0.4189,0,0.2971,0.305,0.307,0.3192,0.325,0.3308,0.3425,0.3532,0.361,0.3737,0.3811,0.3919,0.3866,0.3905,0.4022,0.4064,0.4177,0.4056,0.4136,0.4137,0.3903,0.4062,0.3757,0.3794,0.4218,0.4223,0.4226,0,0.2977,0.3047,0.3152,0.3313,0.3343,0.3423,0.3622,0.3721,0.3898,0.3956,0.4075,0.4106,0.4273,0.42,0.4394,0.4307,0.4341,0.4364,0.4367,0.411,0.3933,0.3736,0.3832,0.372,0.4272,0.4268,0.4265,0,0.2985,0.311,0.3211,0.3259,0.3424,0.3513,0.3614,0.379,0.3897,0.4098,0.4168,0.4342,0.4409,0.4524,0.4529,0.4494,0.4703,0.4649,0.4448,0.4424,0.4181,0.4122,0.4204,0.4856,0.4856,0.4856,0.4856,0,0.3008,0.3094,0.3231,0.3293,0.3465,0.3557,0.374,0.3866,0.4029,0.4156,0.4272,0.4371,0.4507,0.4594,0.4618,0.4587,0.4772,0.4525,0.4472,0.4205,0.4151,0.4049,0.4033,0.4859,0.4858,0.4858,0.4857,0,0.2996,0.307,0.3215,0.3401,0.3465,0.3594,0.3784,0.3905,0.4049,0.421,0.427,0.4436,0.4516,0.4579,0.4736,0.4649,0.4512,0.4634,0.4244,0.4143,0.3782,0.3783,0.3676,0.3594,0.4435,0.443,0.4425,0,0.2994,0.3056,0.3276,0.3371,0.3456,0.3632,0.3741,0.391,0.401,0.422,0.4282,0.4411,0.4447,0.4501,0.4396,0.4357,0.4325,0.4065,0.3971,0.3766,0.3735,0.3606,0.3541,0.3688,0.3678,0.367,0.3663,0,0.302,0.3091,0.323,0.341,0.3544,0.3669,0.3819,0.3883,0.4052,0.4137,0.4215,0.4255,0.4235,0.4026,0.3945,0.3895,0.3792,0.3884,0.384,0.3312,0.3024,0.291,0.3567,0.3588,0.3596,0.3601,0.3605,0.3608,0.3058,0.3156,0.3324,0.3483,0.3603,0.3666,0.3686,0.3783,0.3861,0.3854,0.401,0.3889,0.3734,0.3529,0.3464,0.3102,0.3249,0.2964,0.3027,0.2948,0.2743,0.3168,0.3014,0.3018,0.3022,0.3025,0.3027,0,0.3118,0.3222,0.3376,0.3534,0.3572,0.364,0.3697,0.362,0.3572,0.3562,0.3514,0.3223,0.2967,0.2826,0.2465,0.2293,0.2218,0.2233,0.2068,0.2091,0.261,0.2448,0.1959,0.1959,0.1959,0.1959,0.196,0.196,0.3179,0.3321,0.3385,0.3461,0.3499,0.3417,0.3372,0.3243,0.3166,0.2875,0.2625,0.2536,0.2427,0.2097,0.1809,0.1761,0.1702,0.1472,0.1668,0.2089,0.2164,0.2236,0.2083,0.1526,0.1526,0.0962,0.0958,0.0955]},{"header":{"parameterUnit":"m.s-1","parameterCategory":2,"la1":30.2991,"la2":30.254,"lo1":-89.0895,"lo2":-89.0444,"dy":0.0017,"dx":0.0017,"nx":28,"ny":28,"refTime":"2024-07-07T09:00:00:Z","depth":"0","parameterNumber":3,"parameterNumberName":"V-component_of_CURRENTS"},"data":[0,0,0,0,0,0,0,0,0,0,0,0,0,0,0,0,0,0,0,0,0,0,0,0,0,0,0,0,0,0,0,0,0,0,0,0,0,0,0,0,0,0,0,0,0,0,0,0,0,0,0,0,0,0,0,0,0,0,0.0199,0.0198,0,0.0194,0.0194,0.0194,0.0185,0.0185,0.0184,0.0184,0.0188,0.0188,0.0189,0,0,0,0,0,0,0,0,0,0,0,0,0,0.0206,0.0206,0.0199,0.0198,0.0198,0.0194,0.0194,0.0194,0.0185,0.0185,0.0184,0.0184,0.0188,0.0188,0.0189,0,0,0,0,0,0,0,0,0,0,0,0,0,0.0203,0.0206,0.0199,0.0193,0.0193,0.0194,0.0194,0.0194,0.0185,0.0185,0.0184,0.0184,0.0188,0.0188,0.0189,0.0197,0,0,0.019,0.019,0,0,0,0,0,0,0,0,0.0203,0.0203,0.0194,0.0194,0.0193,0.0189,0.0198,0.0195,0.0185,0.0188,0.0184,0.0184,0.0189,0.019,0.019,0.0197,0.0198,0.019,0.019,0.019,0.0191,0,0,0,0,0,0,0,0.0203,0.0203,0.0197,0.0194,0.0193,0.0193,0.0192,0.0197,0.0191,0.0188,0.0187,0.0186,0.0189,0.0189,0.019,0.0198,0.019,0.019,0.0191,0.0191,0.0254,0.0256,0,0,0,0,0,0,0.0203,0.0203,0.0197,0.0197,0.0197,0.0193,0.0192,0.0191,0.0191,0.019,0.0186,0.0186,0.0189,0.0189,0.019,0.0228,0.019,0.0191,0.0191,0.0253,0.0255,0.0256,0,0,0,0,0,0,0.0203,0.0203,0.0197,0.0199,0.0199,0.0193,0.0192,0.0191,0.0194,0.0189,0.0189,0.019,0.0188,0.0189,0.0206,0.0227,0.0191,0.0191,0.0251,0.0253,0.0255,0.0286,0,0,0,0,0,0,0.0204,0.0203,0.0203,0.0199,0.0199,0.0205,0.0192,0.0191,0.0193,0.0192,0.0192,0.0192,0.0188,0.0205,0.0206,0.0227,0.0192,0.0249,0.0252,0.0255,0.0283,0.0289,0.0294,0,0,0,0,0,0.0204,0.0207,0.0203,0.0202,0.0199,0.0206,0.0206,0.0201,0.0194,0.0201,0.0204,0.0192,0.0223,0.0206,0.0207,0.0228,0.0248,0.0251,0.0255,0.0281,0.0288,0.0294,0,0,0,0,0,0,0.0209,0.0207,0.0202,0.0204,0.0207,0.0204,0.0209,0.0205,0.0212,0.0212,0.0205,0.0206,0.023,0.0228,0.021,0.0257,0.0236,0.024,0.0256,0.0262,0.0268,0.0311,0.0192,0,0,0,0,0,0.021,0.0215,0.0212,0.0215,0.0217,0.0214,0.0215,0.0214,0.0218,0.022,0.0223,0.0231,0.0244,0.0251,0.0261,0.0283,0.0311,0.0301,0.0306,0.0311,0.0349,0.0437,0.0454,0.0267,0.0267,0.0267,0,0,0.0213,0.0213,0.0214,0.0217,0.0218,0.0236,0.0214,0.0223,0.0242,0.0221,0.0249,0.0248,0.0254,0.0281,0.0292,0.0282,0.0365,0.0315,0.0318,0.0355,0.0442,0.046,0.0477,0.0269,0.0269,0.0268,0,0,0.0231,0.0221,0.0236,0.0244,0.0251,0.0252,0.0256,0.0261,0.0265,0.029,0.0282,0.0306,0.0315,0.0335,0.0342,0.0388,0.039,0.0377,0.044,0.0524,0.0541,0.0556,0.0556,0.0571,0.0381,0.0381,0.0381,0,0.0236,0.0254,0.0242,0.0264,0.0277,0.0263,0.0289,0.0294,0.0307,0.0333,0.0307,0.037,0.0353,0.0416,0.0419,0.0403,0.0425,0.0408,0.0533,0.0549,0.0564,0.0561,0.0577,0.0383,0.0383,0.0383,0.0383,0,0.0269,0.0287,0.0298,0.0323,0.0333,0.0353,0.0359,0.0379,0.0381,0.0401,0.0461,0.0456,0.0508,0.0487,0.0459,0.0554,0.0522,0.0526,0.0517,0.0585,0.0576,0.0592,0.0386,0.0385,0.0385,0.0384,0,0,0.028,0.0316,0.0322,0.0351,0.0368,0.0386,0.042,0.0464,0.0524,0.053,0.0625,0.0615,0.0633,0.0645,0.0623,0.0673,0.0747,0.0641,0.0645,0.0641,0.0883,0.0804,0.0813,0.0779,0.0784,0.0787,0.0811,0,0.0315,0.0369,0.0375,0.0435,0.0467,0.0474,0.052,0.0559,0.0596,0.0685,0.07,0.0775,0.0687,0.0726,0.0762,0.0779,0.0803,0.0737,0.082,0.0821,0.0745,0.0836,0.0816,0.0834,0.0827,0.083,0.0832,0,0.0355,0.0387,0.0446,0.0514,0.053,0.0562,0.0652,0.0693,0.0796,0.0837,0.0916,0.0945,0.1016,0.0943,0.1007,0.0972,0.0932,0.092,0.0921,0.0865,0.0778,0.0778,0.0864,0.0828,0.0858,0.0856,0.0854,0,0.0384,0.0444,0.0494,0.0513,0.058,0.0617,0.0656,0.0746,0.0825,0.0958,0.1062,0.1129,0.1208,0.1204,0.1145,0.1103,0.1211,0.1155,0.1032,0.1022,0.1034,0.1018,0.1108,0.121,0.121,0.121,0.121,0,0.0429,0.0476,0.0513,0.0547,0.0633,0.0656,0.0776,0.0832,0.0967,0.1117,0.1152,0.1297,0.129,0.1337,0.1242,0.1194,0.1289,0.1076,0.1058,0.1032,0.1017,0.1008,0.0973,0.1211,0.121,0.121,0.121,0,0.0471,0.049,0.0562,0.0627,0.0652,0.0716,0.0844,0.0957,0.1057,0.1267,0.133,0.1466,0.1523,0.1459,0.1464,0.1332,0.1248,0.1222,0.1142,0.1114,0.094,0.0906,0.0978,0.0968,0.1111,0.111,0.1108,0,0.0499,0.0536,0.0618,0.0677,0.0711,0.0805,0.09,0.0998,0.1139,0.1378,0.1512,0.1622,0.1729,0.1664,0.1472,0.1305,0.1236,0.1145,0.1064,0.0965,0.0916,0.089,0.0876,0.1061,0.106,0.1058,0.1058,0,0.0563,0.059,0.0653,0.0767,0.0859,0.0981,0.1118,0.1236,0.14,0.1578,0.1816,0.1912,0.1838,0.1703,0.144,0.1303,0.1122,0.1112,0.1089,0.0965,0.0876,0.0843,0.0942,0.1048,0.1049,0.1049,0.105,0.105,0.0619,0.0679,0.0765,0.0875,0.099,0.1157,0.1277,0.1455,0.1672,0.1924,0.1994,0.2115,0.1888,0.1544,0.1378,0.1031,0.1042,0.0913,0.0896,0.0891,0.0858,0.0883,0.0917,0.0917,0.0917,0.0918,0.0918,0,0.0694,0.0765,0.0875,0.1019,0.1162,0.1206,0.1437,0.1576,0.1835,0.2011,0.2174,0.2069,0.1814,0.1507,0.1051,0.0865,0.0812,0.0773,0.0774,0.0781,0.0886,0.0859,0.079,0.079,0.079,0.079,0.079,0.079,0.0747,0.0859,0.0911,0.1136,0.1247,0.1443,0.1576,0.1778,0.1933,0.2101,0.2105,0.2091,0.1868,0.1224,0.085,0.0769,0.0713,0.064,0.0641,0.0729,0.0742,0.0754,0.0725,0.0629,0.0629,0.0558,0.0557,0.0556]}],[{"header":{"parameterUnit":"m.s-1","parameterCategory":2,"la1":30.2991,"la2":30.254,"lo1":-89.0895,"lo2":-89.0444,"dy":0.0017,"dx":0.0017,"nx":28,"ny":28,"refTime":"2024-07-07T09:00:00:Z","depth":"2","parameterNumber":2,"parameterNumberName":"U-component_of_CURRENTS"},"data":[0,0,0,0,0,0,0,0,0,0,0,0,0,0,0,0,0,0,0,0,0,0,0,0,0,0,0,0,0,0,0,0,0,0,0,0,0,0,0,0,0,0,0,0,0,0,0,0,0,0,0,0,0,0,0,0,0,0,0.2391,0.2391,0,0.2361,0.2361,0.236,0.237,0.2371,0.2372,0.2373,0.2405,0.2405,0.2405,0,0,0,0,0,0,0,0,0,0,0,0,0,0.2448,0.2447,0.2391,0.2391,0.2391,0.2362,0.2361,0.236,0.237,0.2371,0.2372,0.2373,0.2405,0.2405,0.2405,0,0,0,0,0,0,0,0,0,0,0,0,0,0.242,0.2446,0.2391,0.2393,0.2393,0.2362,0.2361,0.236,0.237,0.2371,0.2372,0.2373,0.2405,0.2405,0.2405,0.2382,0,0,0.2406,0.2406,0,0,0,0,0,0,0,0,0.2421,0.2417,0.2393,0.2393,0.2393,0.2372,0.2393,0.2371,0.237,0.2377,0.2373,0.2374,0.24,0.2401,0.2389,0.2384,0.2385,0.2406,0.2406,0.2406,0.2406,0,0,0,0,0,0,0,0.2423,0.2419,0.2377,0.2393,0.2393,0.2393,0.239,0.2388,0.2382,0.2376,0.2377,0.2377,0.24,0.2389,0.239,0.2386,0.2406,0.2406,0.2406,0.2406,0.2489,0.2491,0,0,0,0,0,0,0.2429,0.242,0.2378,0.2377,0.2412,0.2391,0.2388,0.2376,0.2381,0.2382,0.2376,0.2377,0.2388,0.239,0.2391,0.2478,0.2406,0.2406,0.2406,0.2487,0.249,0.2492,0,0,0,0,0,0,0.243,0.2425,0.238,0.24,0.2395,0.2389,0.2376,0.2375,0.2381,0.238,0.2383,0.2385,0.2389,0.2391,0.2421,0.2476,0.2406,0.2406,0.2485,0.2488,0.2491,0.258,0,0,0,0,0,0,0.2432,0.2425,0.2428,0.24,0.2394,0.2388,0.2375,0.2374,0.2379,0.2381,0.2388,0.2391,0.239,0.2421,0.2421,0.2475,0.2406,0.2482,0.2486,0.249,0.2574,0.2586,0.2596,0,0,0,0,0,0.2434,0.2431,0.2428,0.2424,0.2394,0.239,0.2387,0.2386,0.2378,0.2393,0.24,0.2392,0.2447,0.2422,0.2422,0.2477,0.248,0.2485,0.249,0.257,0.2584,0.2595,0,0,0,0,0,0,0.2454,0.2431,0.2427,0.2417,0.2418,0.2393,0.2401,0.2392,0.2403,0.2414,0.2404,0.2408,0.2462,0.245,0.2422,0.2514,0.2468,0.2473,0.2529,0.2542,0.2552,0.2605,0.2407,0,0,0,0,0,0.2459,0.2455,0.2437,0.2434,0.2434,0.2418,0.2417,0.242,0.242,0.2425,0.2429,0.2446,0.2476,0.2492,0.2511,0.2544,0.2575,0.2585,0.2596,0.2605,0.2649,0.2782,0.281,0.2508,0.2508,0.2508,0,0,0.2464,0.2453,0.245,0.244,0.2435,0.2451,0.2421,0.2433,0.2449,0.2428,0.2458,0.248,0.2493,0.2548,0.2571,0.2547,0.2689,0.2611,0.2618,0.2659,0.279,0.282,0.2847,0.2511,0.251,0.251,0,0,0.2474,0.2465,0.2468,0.2477,0.2484,0.2484,0.2493,0.2486,0.2488,0.2522,0.2522,0.2592,0.26,0.2648,0.2666,0.2745,0.2743,0.2734,0.283,0.2958,0.2985,0.301,0.3012,0.3036,0.2738,0.2738,0.2738,0,0.2487,0.2481,0.2472,0.2488,0.2501,0.2504,0.2524,0.2529,0.2537,0.2587,0.2555,0.2654,0.2668,0.2761,0.2801,0.2777,0.2802,0.2776,0.2976,0.3001,0.3025,0.3022,0.3048,0.2743,0.2743,0.2742,0.2742,0,0.2496,0.2509,0.2515,0.2538,0.2557,0.2578,0.259,0.2634,0.2651,0.2692,0.2786,0.279,0.2858,0.2877,0.2869,0.303,0.2972,0.2975,0.2948,0.3062,0.3049,0.3074,0.275,0.2748,0.2747,0.2746,0,0,0.2476,0.2513,0.2518,0.255,0.2587,0.2609,0.2669,0.2751,0.2835,0.2864,0.2953,0.3034,0.3052,0.3074,0.3051,0.3178,0.3341,0.3156,0.316,0.3165,0.3545,0.3311,0.3314,0.3387,0.3394,0.3399,0.3441,0,0.2487,0.2531,0.2542,0.2609,0.2638,0.269,0.2748,0.2843,0.292,0.3015,0.3068,0.3174,0.3105,0.3162,0.3248,0.3346,0.3425,0.3325,0.3431,0.3433,0.322,0.3345,0.3044,0.3043,0.3466,0.347,0.3473,0,0.2484,0.2521,0.2575,0.2667,0.2685,0.2738,0.2888,0.2947,0.3112,0.3177,0.3279,0.3321,0.3457,0.3393,0.3567,0.3503,0.3534,0.3595,0.3598,0.3384,0.325,0.3014,0.3072,0.3515,0.3511,0.3508,0.3506,0,0.2475,0.2545,0.2595,0.2622,0.2725,0.2789,0.2868,0.3037,0.3116,0.3323,0.3422,0.3532,0.3586,0.3696,0.3737,0.3707,0.3913,0.3877,0.3669,0.3647,0.3417,0.3363,0.4035,0.4035,0.4035,0.4035,0.4034,0,0.2477,0.2525,0.2608,0.264,0.2748,0.2816,0.2956,0.3082,0.3228,0.337,0.3489,0.3559,0.3696,0.3777,0.3807,0.3772,0.3948,0.3719,0.3684,0.3422,0.3371,0.3814,0.3788,0.4036,0.4036,0.4035,0.4035,0,0.2473,0.2513,0.2594,0.2704,0.2743,0.2842,0.2987,0.3089,0.3261,0.3427,0.3515,0.3644,0.3761,0.3807,0.398,0.3835,0.3891,0.3829,0.3435,0.3352,0.3506,0.3484,0.3628,0.3621,0.3615,0.361,0.3606,0,0.2467,0.2501,0.2631,0.2677,0.2732,0.2859,0.2932,0.3102,0.3199,0.3458,0.351,0.3682,0.3679,0.3716,0.3641,0.36,0.3757,0.3269,0.3178,0.3534,0.3486,0.3473,0.3459,0.2877,0.2867,0.2859,0.2853,0,0.2467,0.252,0.258,0.2682,0.2762,0.2843,0.2959,0.3021,0.3231,0.3331,0.3424,0.3463,0.3461,0.324,0.3172,0.312,0.3253,0.3096,0.3675,0.3,0.2824,0.2775,0.2789,0.2781,0.2789,0.2794,0.2798,0.2801,0.2456,0.2513,0.2587,0.2679,0.2738,0.2783,0.2791,0.287,0.2943,0.3018,0.316,0.3065,0.3043,0.273,0.2622,0.2538,0.277,0.2641,0.2669,0.2705,0.2585,0.2407,0.2257,0.226,0.2264,0.2267,0.227,0,0.2442,0.2499,0.2571,0.2643,0.2629,0.2729,0.2751,0.2691,0.2651,0.272,0.2685,0.2378,0.218,0.2207,0.194,0.1868,0.1891,0.1801,0.1839,0.1909,0.1972,0.1818,0.1285,0.1282,0.1279,0.1277,0,0,0.2433,0.2495,0.2539,0.2511,0.2534,0.2474,0.2445,0.2346,0.2294,0.2123,0.2015,0.2077,0.2126,0.1699,0.1606,0.1418,0.1667,0.1343,0.2131,0.225,0.2311,0.2446,0.2284,0,0,0,0,0]},{"header":{"parameterUnit":"m.s-1","parameterCategory":2,"la1":30.2991,"la2":30.254,"lo1":-89.0895,"lo2":-89.0444,"dy":0.0017,"dx":0.0017,"nx":28,"ny":28,"refTime":"2024-07-07T09:00:00:Z","depth":"2","parameterNumber":3,"parameterNumberName":"V-component_of_CURRENTS"},"data":[0,0,0,0,0,0,0,0,0,0,0,0,0,0,0,0,0,0,0,0,0,0,0,0,0,0,0,0,0,0,0,0,0,0,0,0,0,0,0,0,0,0,0,0,0,0,0,0,0,0,0,0,0,0,0,0,0,0,0.0066,0.0066,0,0.0056,0.0056,0.0056,0.0055,0.0056,0.0056,0.0056,0.0048,0.0048,0.0047,0,0,0,0,0,0,0,0,0,0,0,0,0,0.0065,0.0065,0.0066,0.0066,0.0066,0.0056,0.0056,0.0055,0.0055,0.0056,0.0056,0.0056,0.0048,0.0048,0.0047,0,0,0,0,0,0,0,0,0,0,0,0,0,0.006,0.0065,0.0066,0.0066,0.0066,0.0056,0.0056,0.0055,0.0055,0.0056,0.0056,0.0056,0.0049,0.0048,0.0047,0.0037,0,0,0.0045,0.0045,0,0,0,0,0,0,0,0,0.006,0.006,0.0066,0.0066,0.0066,0.0058,0.0052,0.005,0.0055,0.0058,0.0056,0.0056,0.0052,0.0051,0.0047,0.0036,0.0036,0.0045,0.0045,0.0045,0.0045,0,0,0,0,0,0,0,0.0061,0.006,0.0061,0.0066,0.0066,0.0059,0.0058,0.0052,0.0053,0.0058,0.0058,0.0058,0.0052,0.0048,0.0047,0.0036,0.0045,0.0045,0.0044,0.0044,0.0053,0.0053,0,0,0,0,0,0,0.0065,0.0061,0.0062,0.0061,0.0065,0.0059,0.0058,0.0059,0.0053,0.0052,0.0058,0.0059,0.0049,0.0048,0.0047,0.006,0.0045,0.0044,0.0044,0.0052,0.0053,0.0054,0,0,0,0,0,0,0.0065,0.0065,0.0062,0.0061,0.0061,0.0059,0.006,0.0059,0.0061,0.0053,0.0053,0.0061,0.0049,0.0048,0.0053,0.0059,0.0044,0.0043,0.0051,0.0052,0.0053,0.007,0,0,0,0,0,0,0.0065,0.0065,0.0065,0.0062,0.0061,0.0064,0.0059,0.0059,0.006,0.0061,0.0055,0.0055,0.0049,0.0054,0.0052,0.0058,0.0043,0.0051,0.0052,0.0053,0.0069,0.0071,0.0074,0,0,0,0,0,0.0065,0.0067,0.0065,0.0065,0.0062,0.0064,0.0063,0.0062,0.006,0.0064,0.0064,0.0055,0.006,0.0054,0.0052,0.0057,0.005,0.0052,0.0053,0.0068,0.0071,0.0074,0,0,0,0,0,0,0.0065,0.0067,0.0065,0.0067,0.0069,0.0065,0.0066,0.0064,0.0066,0.0068,0.006,0.006,0.0065,0.0061,0.0055,0.0065,0.0055,0.0056,0.0067,0.0069,0.0072,0.01,0.0042,0,0,0,0,0,0.0065,0.0068,0.0069,0.007,0.0072,0.0069,0.0068,0.007,0.007,0.0071,0.0069,0.0069,0.0068,0.007,0.0067,0.0071,0.009,0.0075,0.0077,0.0079,0.0102,0.0169,0.018,0.0058,0.0058,0.0058,0,0,0.0065,0.0067,0.0068,0.0071,0.007,0.0082,0.007,0.0074,0.0082,0.007,0.008,0.0075,0.007,0.0076,0.0079,0.0075,0.0112,0.0081,0.0083,0.0105,0.0172,0.0184,0.0195,0.0059,0.0059,0.0059,0,0,0.0074,0.0069,0.0079,0.0085,0.009,0.009,0.0094,0.0095,0.0092,0.0101,0.0094,0.0104,0.0096,0.0103,0.0103,0.012,0.0122,0.0108,0.0145,0.0209,0.022,0.0231,0.022,0.0229,0.0112,0.0112,0.0112,0,0.0075,0.0091,0.0081,0.0097,0.0106,0.0098,0.0116,0.0111,0.0115,0.0118,0.011,0.0135,0.0116,0.0145,0.0141,0.0128,0.0143,0.013,0.0215,0.0225,0.0236,0.0223,0.0233,0.0113,0.0113,0.0113,0.0113,0,0.0096,0.0112,0.0119,0.0138,0.0141,0.0157,0.0153,0.0154,0.0151,0.0154,0.018,0.0178,0.02,0.0185,0.0161,0.0217,0.0193,0.0208,0.0209,0.025,0.0232,0.0242,0.0114,0.0114,0.0114,0.0113,0,0,0.0101,0.0129,0.0134,0.0155,0.0168,0.0176,0.0182,0.0192,0.0219,0.0219,0.0274,0.025,0.0262,0.0265,0.0252,0.0294,0.0338,0.0278,0.0281,0.027,0.0436,0.0381,0.0386,0.0378,0.0381,0.0384,0.0375,0,0.0127,0.0166,0.017,0.0211,0.0233,0.0228,0.0246,0.025,0.0257,0.0308,0.0313,0.036,0.0289,0.0322,0.0347,0.0376,0.0376,0.0336,0.0397,0.0397,0.035,0.0402,0.0406,0.0399,0.0385,0.0387,0.0388,0,0.0156,0.0179,0.022,0.0263,0.0272,0.0289,0.0322,0.0336,0.0379,0.04,0.0441,0.0462,0.0516,0.047,0.0516,0.0499,0.0452,0.0454,0.0455,0.0417,0.0366,0.0367,0.0418,0.0406,0.0404,0.0403,0.0402,0,0.0178,0.0219,0.0254,0.0268,0.0309,0.0317,0.0331,0.0358,0.0405,0.0475,0.0559,0.0594,0.0682,0.0658,0.0618,0.0587,0.0677,0.0638,0.0523,0.0515,0.0539,0.053,0.0648,0.0648,0.0648,0.0648,0.0648,0,0.0216,0.0249,0.0266,0.0292,0.0339,0.0343,0.041,0.0424,0.0512,0.0634,0.0618,0.0755,0.0748,0.0787,0.069,0.0651,0.0725,0.0545,0.0536,0.0535,0.0526,0.056,0.055,0.0647,0.0647,0.0647,0.0647,0,0.0251,0.0265,0.0311,0.0344,0.0357,0.0384,0.0466,0.0541,0.0597,0.0774,0.0823,0.0923,0.0979,0.0905,0.0903,0.0777,0.072,0.0657,0.0614,0.06,0.0477,0.0468,0.0548,0.0546,0.0545,0.0544,0.0543,0,0.0275,0.0302,0.0346,0.0387,0.0405,0.0455,0.0526,0.0579,0.0692,0.0897,0.1024,0.1111,0.1189,0.1112,0.0943,0.0758,0.072,0.0607,0.0542,0.0497,0.048,0.0472,0.0465,0.0551,0.0551,0.055,0.055,0,0.0322,0.0336,0.0373,0.046,0.0525,0.0625,0.0729,0.084,0.0976,0.112,0.1336,0.1397,0.1316,0.1175,0.0901,0.0768,0.0641,0.0585,0.0632,0.0567,0.0499,0.0481,0.0475,0.0545,0.0545,0.0546,0.0546,0.0546,0.0357,0.039,0.0454,0.0537,0.0641,0.0818,0.0925,0.1083,0.1277,0.1489,0.1524,0.1564,0.1385,0.103,0.0822,0.0589,0.0601,0.0486,0.049,0.0494,0.0487,0.0421,0.0446,0.0446,0.0446,0.0446,0.0446,0,0.0403,0.0453,0.0539,0.0664,0.0818,0.0861,0.1093,0.1216,0.1463,0.1575,0.167,0.1446,0.126,0.1027,0.068,0.0468,0.0457,0.039,0.0426,0.0433,0.0439,0.043,0.0373,0.0372,0.0372,0.0371,0,0,0.0432,0.0517,0.0561,0.0799,0.0916,0.1133,0.128,0.145,0.1554,0.1641,0.161,0.1551,0.1299,0.1018,0.0762,0.0569,0.0541,0.0521,0.0603,0.0685,0.0693,0.0521,0.0518,0,0,0,0,0]}],[{"header":{"parameterUnit":"m.s-1","parameterCategory":2,"la1":30.2991,"la2":30.254,"lo1":-89.0895,"lo2":-89.0444,"dy":0.0017,"dx":0.0017,"nx":28,"ny":28,"refTime":"2024-07-07T09:00:00:Z","depth":"4","parameterNumber":2,"parameterNumberName":"U-component_of_CURRENTS"},"data":[0,0,0,0,0,0,0,0,0,0,0,0,0,0,0,0,0,0,0,0,0,0,0,0,0,0,0,0,0,0,0,0,0,0,0,0,0,0,0,0,0,0,0,0,0,0,0,0,0,0,0,0,0,0,0,0,0,0,0.1397,0.1397,0,0.1397,0.1397,0.1396,0.1409,0.141,0.1411,0.1412,0.1371,0.1369,0.1368,0,0,0,0,0,0,0,0,0,0,0,0,0,0.1353,0.1353,0.1397,0.1397,0.1398,0.1397,0.1397,0.1396,0.1409,0.141,0.1411,0.1412,0.1372,0.137,0.1367,0,0,0,0,0,0,0,0,0,0,0,0,0,0.1358,0.1353,0.1397,0.1409,0.1411,0.1397,0.1397,0.1396,0.1409,0.141,0.1412,0.1413,0.1373,0.137,0.1367,0.1321,0,0,0.1358,0.1357,0,0,0,0,0,0,0,0,0.1358,0.1359,0.1407,0.1408,0.141,0.141,0.1367,0.1371,0.1408,0.1402,0.1412,0.1414,0.1384,0.138,0.1368,0.1319,0.1317,0.1358,0.1356,0.1355,0.1354,0,0,0,0,0,0,0,0.1358,0.1359,0.139,0.1407,0.141,0.1397,0.1399,0.1367,0.1379,0.1403,0.1406,0.1416,0.1384,0.1371,0.1367,0.1316,0.1358,0.1355,0.1354,0.1352,0.1372,0.1374,0,0,0,0,0,0,0.1372,0.1359,0.139,0.1391,0.1394,0.1397,0.1399,0.1403,0.1381,0.1381,0.1415,0.1417,0.1375,0.1371,0.1366,0.1394,0.1355,0.1352,0.135,0.137,0.1373,0.1375,0,0,0,0,0,0,0.1371,0.1375,0.139,0.138,0.1382,0.1397,0.1402,0.1403,0.1428,0.1391,0.1389,0.1444,0.1376,0.137,0.1378,0.1389,0.1351,0.1348,0.1367,0.1371,0.1374,0.1395,0,0,0,0,0,0,0.1369,0.1374,0.139,0.1381,0.1384,0.1397,0.1401,0.1402,0.1433,0.1436,0.1414,0.141,0.1377,0.1383,0.1375,0.1384,0.1346,0.1364,0.1369,0.1373,0.1391,0.1399,0.1405,0,0,0,0,0,0.1368,0.1381,0.139,0.1395,0.1402,0.1398,0.1397,0.1408,0.1434,0.1437,0.1443,0.1413,0.1406,0.1382,0.1372,0.1381,0.1362,0.1368,0.1373,0.1388,0.1397,0.1405,0,0,0,0,0,0,0.1373,0.1384,0.1394,0.1412,0.1415,0.1403,0.1419,0.143,0.1435,0.1452,0.1425,0.1419,0.1441,0.1417,0.1392,0.1409,0.1386,0.1389,0.1401,0.1409,0.1416,0.1416,0.1343,0,0,0,0,0,0.1382,0.1395,0.1399,0.1416,0.1425,0.143,0.1438,0.1443,0.1446,0.1453,0.1438,0.144,0.1447,0.1435,0.1432,0.1419,0.1444,0.143,0.1437,0.1442,0.1442,0.1562,0.1579,0.1392,0.1392,0.1392,0,0,0.1389,0.14,0.1408,0.1419,0.1427,0.142,0.1438,0.1457,0.1449,0.1444,0.1443,0.1465,0.1458,0.1458,0.1464,0.1438,0.1498,0.1449,0.1452,0.145,0.1569,0.1587,0.1603,0.1396,0.1395,0.1394,0,0,0.1392,0.1422,0.1426,0.1429,0.1449,0.1442,0.1459,0.1462,0.1468,0.1474,0.1486,0.1526,0.1504,0.1505,0.1504,0.1549,0.1547,0.1553,0.1558,0.1674,0.169,0.1705,0.1707,0.1722,0.1537,0.1537,0.1537,0,0.1405,0.1401,0.1426,0.1426,0.1427,0.1456,0.1446,0.1449,0.1453,0.1464,0.1484,0.1532,0.1528,0.1545,0.1564,0.156,0.1599,0.1517,0.1682,0.1698,0.1713,0.1712,0.1728,0.1539,0.1538,0.1538,0.1538,0,0.1393,0.1398,0.1406,0.1406,0.141,0.1413,0.1418,0.1422,0.1451,0.147,0.1526,0.1549,0.1585,0.1593,0.1583,0.1672,0.1653,0.1692,0.1655,0.1732,0.1726,0.1743,0.1541,0.154,0.154,0.154,0,0,0.1394,0.1394,0.1398,0.1376,0.14,0.1383,0.1389,0.1392,0.1413,0.1458,0.1508,0.1543,0.161,0.1617,0.1634,0.1711,0.1827,0.174,0.1745,0.1728,0.2021,0.1843,0.1843,0.1917,0.1921,0.1925,0.1954,0,0.1374,0.1347,0.1362,0.1326,0.1304,0.1327,0.1331,0.1348,0.1391,0.1448,0.1526,0.1603,0.1603,0.1657,0.1736,0.1841,0.1882,0.181,0.1961,0.1963,0.1787,0.1861,0.1939,0.1966,0.197,0.1973,0.1975,0,0.1346,0.1325,0.1295,0.1263,0.1264,0.1262,0.1269,0.1283,0.1378,0.1426,0.1528,0.1623,0.1741,0.1763,0.1938,0.1905,0.1955,0.2011,0.2016,0.1857,0.1818,0.1891,0.2004,0.2002,0.2,0.1998,0.1996,0,0.1283,0.1265,0.1232,0.1226,0.1218,0.1217,0.123,0.1294,0.1338,0.1458,0.1546,0.168,0.1814,0.1924,0.204,0.2026,0.223,0.2229,0.208,0.2064,0.2203,0.2188,0.234,0.234,0.234,0.234,0.234,0,0.1227,0.1195,0.1208,0.1178,0.1148,0.1188,0.1208,0.1223,0.1361,0.1442,0.157,0.1669,0.189,0.2029,0.2078,0.2122,0.2267,0.2081,0.2085,0.2201,0.2186,0.221,0.2195,0.2341,0.2341,0.2341,0.2341,0,0.1147,0.1168,0.1102,0.1099,0.111,0.1093,0.1181,0.1213,0.1352,0.1474,0.1545,0.175,0.1907,0.2039,0.223,0.2173,0.2226,0.2188,0.2243,0.2249,0.195,0.1936,0.2018,0.2012,0.2007,0.2004,0.2,0,0.1099,0.1075,0.1029,0.1013,0.1016,0.1035,0.1063,0.118,0.1244,0.149,0.1549,0.1778,0.1881,0.1994,0.2117,0.2158,0.2136,0.2109,0.2063,0.1934,0.1931,0.1923,0.1915,0.1993,0.1992,0.1991,0.1989,0,0.1001,0.1001,0.0939,0.0915,0.0918,0.0915,0.0983,0.1035,0.121,0.1361,0.1537,0.1647,0.1799,0.1917,0.1966,0.1989,0.2112,0.206,0.2069,0.2026,0.1905,0.1904,0.1902,0.1973,0.1976,0.1977,0.1978,0,0.0932,0.0855,0.0819,0.0783,0.0806,0.0814,0.084,0.0954,0.1055,0.1348,0.1398,0.1611,0.1802,0.1826,0.187,0.1885,0.1847,0.1775,0.1798,0.1817,0.1737,0.1554,0.1523,0,0,0,0,0,0.0861,0.0765,0.071,0.0653,0.07,0.0737,0.0807,0.0871,0.1061,0.1146,0.1287,0.1412,0.1532,0.1631,0.1606,0.1724,0.1816,0.1678,0.1735,0.1884,0.1902,0.1827,0,0,0,0,0,0,0.0797,0.0725,0.0653,0.0613,0.0609,0.0648,0.0702,0.0813,0.0877,0.1085,0.1167,0.1317,0.1452,0.1568,0.1595,0.1613,0.1608,0.1798,0.1793,0.1873,0.189,0.1905,0.1834,0,0,0,0,0]},{"header":{"parameterUnit":"m.s-1","parameterCategory":2,"la1":30.2991,"la2":30.254,"lo1":-89.0895,"lo2":-89.0444,"dy":0.0017,"dx":0.0017,"nx":28,"ny":28,"refTime":"2024-07-07T09:00:00:Z","depth":"4","parameterNumber":3,"parameterNumberName":"V-component_of_CURRENTS"},"data":[0,0,0,0,0,0,0,0,0,0,0,0,0,0,0,0,0,0,0,0,0,0,0,0,0,0,0,0,0,0,0,0,0,0,0,0,0,0,0,0,0,0,0,0,0,0,0,0,0,0,0,0,0,0,0,0,0,0,0.005,0.005,0,0.0049,0.0049,0.0049,0.0058,0.0058,0.0059,0.0059,0.006,0.0059,0.0059,0,0,0,0,0,0,0,0,0,0,0,0,0,0.0049,0.0049,0.005,0.005,0.005,0.0049,0.0049,0.0049,0.0058,0.0058,0.0059,0.0059,0.006,0.0059,0.0059,0,0,0,0,0,0,0,0,0,0,0,0,0,0.0049,0.0049,0.005,0.0055,0.0055,0.0049,0.0049,0.0049,0.0058,0.0058,0.0059,0.0059,0.006,0.0059,0.0059,0.005,0,0,0.0058,0.0058,0,0,0,0,0,0,0,0,0.0049,0.0049,0.0054,0.0054,0.0055,0.0054,0.0049,0.0049,0.0058,0.0057,0.0059,0.0059,0.0058,0.0057,0.0057,0.005,0.005,0.0058,0.0058,0.0058,0.0058,0,0,0,0,0,0,0,0.0049,0.0049,0.005,0.0054,0.0054,0.0053,0.0053,0.0049,0.0055,0.0057,0.0058,0.0057,0.0058,0.0057,0.0057,0.005,0.0058,0.0058,0.0058,0.0057,0.0061,0.0061,0,0,0,0,0,0,0.0049,0.0049,0.005,0.005,0.0053,0.0052,0.0053,0.0054,0.0055,0.0056,0.0057,0.0058,0.0057,0.0057,0.0057,0.0082,0.0058,0.0057,0.0057,0.0061,0.0061,0.0061,0,0,0,0,0,0,0.0049,0.0049,0.005,0.0049,0.0049,0.0052,0.0053,0.0054,0.0057,0.0055,0.0056,0.006,0.0057,0.0057,0.0063,0.008,0.0057,0.0057,0.006,0.0061,0.0061,0.0108,0,0,0,0,0,0,0.0049,0.0049,0.005,0.0049,0.0049,0.0053,0.0053,0.0054,0.0056,0.0057,0.0058,0.0058,0.0058,0.0063,0.0062,0.0079,0.0057,0.006,0.0061,0.0061,0.0106,0.011,0.0114,0,0,0,0,0,0.0049,0.0049,0.005,0.005,0.005,0.0054,0.0054,0.0057,0.0056,0.006,0.0063,0.0059,0.0066,0.0063,0.0062,0.008,0.006,0.0061,0.0061,0.0105,0.0109,0.0113,0,0,0,0,0,0,0.0048,0.005,0.0051,0.0051,0.0055,0.0055,0.0056,0.0058,0.0062,0.0063,0.0062,0.0062,0.0072,0.0065,0.0062,0.008,0.0062,0.0063,0.0096,0.01,0.0104,0.0119,0.0057,0,0,0,0,0,0.0047,0.0049,0.0051,0.0052,0.0053,0.0055,0.0056,0.0059,0.0062,0.0064,0.0068,0.0069,0.0072,0.0078,0.0075,0.0086,0.0065,0.0095,0.0099,0.0102,0.0113,0.0087,0.009,0.0064,0.0064,0.0064,0,0,0.0046,0.0048,0.0048,0.0052,0.0053,0.0072,0.0057,0.006,0.0084,0.0063,0.0092,0.0078,0.0074,0.0089,0.0093,0.009,0.0097,0.0103,0.0106,0.0115,0.0088,0.0091,0.0093,0.0064,0.0064,0.0064,0,0,0.0051,0.0047,0.0054,0.0064,0.007,0.0077,0.008,0.0086,0.0096,0.0114,0.0105,0.0104,0.0112,0.0116,0.0118,0.0137,0.0111,0.0134,0.0174,0.0149,0.0151,0.0153,0.0126,0.0124,0.0143,0.0143,0.0143,0,0.0051,0.0069,0.0057,0.0075,0.0096,0.0084,0.0114,0.0119,0.013,0.0144,0.0131,0.0135,0.0129,0.0149,0.016,0.0148,0.0125,0.0161,0.0155,0.0156,0.0157,0.0128,0.0126,0.0146,0.0145,0.0145,0.0145,0,0.007,0.0092,0.0098,0.0126,0.014,0.0162,0.0175,0.019,0.0197,0.0204,0.0215,0.0194,0.0201,0.0194,0.0189,0.0196,0.0174,0.0156,0.0146,0.0162,0.0131,0.0128,0.0149,0.0148,0.0148,0.0147,0,0,0.0064,0.0106,0.0112,0.0152,0.0177,0.02,0.0233,0.0269,0.0293,0.0287,0.0311,0.0307,0.0281,0.028,0.0256,0.0239,0.0223,0.0209,0.0206,0.0186,0.0163,0.0167,0.0164,0.0201,0.0201,0.0201,0.0137,0,0.0094,0.015,0.0161,0.0235,0.0276,0.029,0.0329,0.0354,0.0356,0.0369,0.0343,0.0349,0.0317,0.0313,0.0291,0.024,0.0219,0.0242,0.0147,0.0145,0.015,0.0162,0.02,0.0135,0.0134,0.0134,0.0134,0,0.0118,0.0163,0.0235,0.0321,0.0338,0.0379,0.0443,0.0474,0.0478,0.0471,0.0455,0.0421,0.0404,0.0361,0.0289,0.0304,0.0244,0.0196,0.0192,0.018,0.0144,0.0115,0.0128,0.0128,0.0129,0.0129,0.0129,0,0.0144,0.0222,0.0292,0.032,0.0399,0.0444,0.0489,0.0511,0.0548,0.0531,0.0535,0.0487,0.0473,0.0392,0.0302,0.0294,0.0205,0.0178,0.0122,0.0121,0.0114,0.0113,0.0121,0.0122,0.0122,0.0122,0.0122,0,0.0184,0.0243,0.0317,0.0362,0.0457,0.0494,0.0577,0.0593,0.062,0.0651,0.0592,0.0582,0.048,0.0414,0.0317,0.0219,0.0217,0.0136,0.011,0.0134,0.0136,0.0112,0.0111,0.0119,0.012,0.012,0.0121,0,0.0204,0.0246,0.0339,0.0437,0.0474,0.0545,0.0654,0.0702,0.0711,0.074,0.0741,0.0674,0.0582,0.0469,0.0334,0.0256,0.0148,0.0109,0.0149,0.0125,0.0072,0.0075,0.0042,0.0042,0.0041,0.0041,0.0041,0,0.0218,0.0266,0.0388,0.0451,0.0504,0.0613,0.0683,0.0741,0.0779,0.0786,0.0792,0.0726,0.0659,0.0479,0.0348,0.017,0.0141,0.0084,0.0077,0.0089,0.0066,0.007,0.0073,0.0041,0.0041,0.004,0.004,0,0.0252,0.029,0.0365,0.0485,0.0578,0.0689,0.0785,0.0822,0.0867,0.0878,0.0836,0.0741,0.0636,0.0482,0.0354,0.0219,0.0122,0.0081,0.008,0.0072,0.0087,0.0065,0.0069,0.004,0.004,0.004,0.004,0,0.0269,0.0321,0.0407,0.052,0.0628,0.0726,0.0788,0.0843,0.089,0.0887,0.0868,0.0749,0.0687,0.0506,0.0379,0.0261,0.0221,0.0173,0.0166,0.0166,0.0219,0.0257,0.0248,0,0,0,0,0,0.0291,0.0347,0.044,0.0559,0.0662,0.0733,0.0832,0.0879,0.0913,0.0892,0.0888,0.0783,0.0603,0.052,0.0404,0.036,0.0193,0.0217,0.0133,0.0035,0.0036,0.0079,0,0,0,0,0,0,0.0308,0.0384,0.0432,0.0559,0.0648,0.0765,0.0835,0.0867,0.0859,0.0867,0.0776,0.0744,0.057,0.0669,0.0397,0.0362,0.0289,0.014,0.0137,0.0035,0.0035,0.0036,0.008,0,0,0,0,0]}]]